Home   Weather   Montego Bay   Past weeks

Flag for Jamaica Past Weather in Montego Bay, Jamaica — Yesterday and Last 2 Weeks

Now
75 °F

Passing clouds.


Feels Like: 77 °F
Forecast: 68 / 86 °F
Wind: 6 mph from Southwest

Location: Montego Bay / Sangster

Current Time: Jan 22, 2017 at 11:33:01 pm

Latest Report: Jan 22, 2017 at 10:00 pm


Visibility: N/A

Pressure: 29.89 "Hg

Humidity: 69%

Dew Point: 64 °F

Location of Montego BayLocation

Past Weather in Montego Bay — Graph

°F

Montego Bay Temperature Yesterday

Maximum temperature yesterday: 82 °F (at 10:00 am)
Minimum temperature yesterday: 68 °F (at 4:00 am)
Average temperature yesterday: 76 °F

High & Low Weather Summary for the Past Weeks

 TemperatureHumidityPressure
High86 °F (Jan 19, 1:00 pm)94% (Jan 8, 5:00 am)30.18 "Hg (Jan 8, 5:00 am)
Low68 °F (Jan 21, 4:00 am)48% (Jan 12, 3:00 pm)29.86 "Hg (Jan 22, 2:00 pm)
Average78 °F69%30.02 "Hg
* Reported Jan 7 10:00 pm — Jan 22 10:00 pm, Montego Bay, Weather by CustomWeather, © 2017

Note: Actual official high and low records may vary slightly from our data, if they occured in-between our weather recording intervals... More about our weather records

Advertising

Montego Bay Weather History for the Previous 24 Hours

Scroll right to see more
 ConditionsComfort  
Time TempWeatherWind HumidityBarometerVisibility
10:00 pm
Sun, Jan 22
75 °FPassing clouds.6 mph69%29.89 "HgN/A
9:00 pm77 °FPassing clouds.8 mph65%29.86 "HgN/A
8:00 pm77 °FPassing clouds.3 mph69%29.89 "HgN/A
7:00 pm77 °FPassing clouds.5 mph74%29.86 "HgN/A
6:00 pm79 °FPassing clouds.6 mph70%29.86 "HgN/A
5:00 pm81 °FScattered clouds.8 mph66%29.86 "HgN/A
4:00 pm81 °FScattered clouds.7 mph66%29.86 "HgN/A
3:00 pm79 °FPartly sunny.9 mph65%29.86 "HgN/A
2:00 pm82 °FPartly sunny.8 mph55%29.86 "HgN/A
1:00 pm81 °FScattered clouds.9 mph58%29.89 "HgN/A
12:00 pm81 °FWarm.N/A58%29.92 "HgN/A
11:00 am82 °FPassing clouds.5 mph55%29.95 "HgN/A
10:00 am82 °FPassing clouds.2 mph48%29.98 "HgN/A
9:00 am81 °FPassing clouds.5 mph54%29.98 "HgN/A
8:00 am77 °FPassing clouds.1 mph65%29.95 "HgN/A
7:00 am72 °FPassing clouds.3 mph83%29.92 "HgN/A
6:00 am73 °FPassing clouds.6 mph74%29.92 "HgN/A
5:00 am72 °FPassing clouds.3 mph78%29.89 "HgN/A
4:00 am73 °FPassing clouds.3 mph74%29.89 "HgN/A
3:00 am75 °FPassing clouds.7 mph69%29.89 "HgN/A
2:00 am73 °FPassing clouds.5 mph74%29.89 "HgN/A
1:00 am75 °FPassing clouds.1 mph78%29.92 "HgN/A
12:00 am75 °FPassing clouds.5 mph69%29.95 "HgN/A
11:00 pm
Sat, Jan 21
73 °FPassing clouds.1 mph78%29.95 "HgN/A
Weather by CustomWeather, © 2017

See weather overviewHow to use our weather pages